DW2149 Weather Reports


time (UTC)temp
C
wind
direction
speed
KPH
gust
KPH
rain 1hr
cm
rain 24hr
cm
rain mn
cm
humidity
%
barometer
mb
20260904212344 20 250 0.0 4.8 0.00 0.00 0.00 57 1011.6
20260904212138 20 224 0.0 4.8 0.00 0.00 0.00 57 1011.6
20260904211926 20 224 0.0 4.8 0.00 0.00 0.00 57 1011.6
20260904211724 20 224 0.0 3.2 0.00 0.00 0.00 58 1011.6
20260904211329 20 224 0.0 3.2 0.00 0.00 0.00 58 1011.6
20260904211125 20 217 0.0 3.2 0.00 0.00 0.00 57 1011.6
20260904210918 20 217 0.0 3.2 0.00 0.00 0.00 57 1011.6
20260904210710 20 217 0.0 0.0 0.00 0.00 0.00 57 1011.6
20260904210457 20 218 0.0 0.0 0.00 0.00 0.00 57 1011.6
20260904210244 20 218 0.0 0.0 0.00 0.00 0.00 57 1011.7
20260904210032 20 218 0.0 0.0 0.00 0.00 0.00 57 1011.6
20260904205820 20 218 0.0 0.0 0.00 0.00 0.00 57 1011.6
20260904205611 20 218 0.0 3.2 0.00 0.00 0.00 57 1011.6
20260904205408 20 217 0.0 6.4 0.00 0.00 0.00 57 1011.7
20260904205159 20 217 0.0 6.4 0.00 0.00 0.00 57 1011.6
20260904204948 20 217 0.0 6.4 0.00 0.00 0.00 57 1011.6
20260904204737 20 218 0.0 0.0 0.00 0.00 0.00 58 1011.6
20260904204526 20 218 0.0 0.0 0.00 0.00 0.00 58 1011.6
20260904204316 20 218 0.0 0.0 0.00 0.00 0.00 57 1011.7
20260904204108 20 217 0.0 0.0 0.00 0.00 0.00 57 1011.6
20260904203721 20 218 0.0 0.0 0.00 0.00 0.00 57 1011.7
20260904203515 20 218 0.0 11.3 0.00 0.00 0.00 57 1011.7
20260904203310 20 218 0.0 11.3 0.00 0.00 0.00 57 1011.7
20260904203057 20 218 0.0 11.3 0.00 0.00 0.00 57 1011.7
20260904202849 20 218 1.6 11.3 0.00 0.00 0.00 57 1011.7
20260904202644 20 213 0.0 9.7 0.00 0.00 0.00 57 1011.7
20260904202256 20 219 0.0 8.0 0.00 0.00 0.00 57 1011.6
20260904202051 20 219 0.0 4.8 0.00 0.00 0.00 57 1011.6
20260904201838 20 219 0.0 3.2 0.00 0.00 0.00 57 1011.6
20260904201636 20 219 0.0 3.2 0.00 0.00 0.00 57 1011.6
20260904201427 20 217 0.0 1.6 0.00 0.00 0.00 57 1011.6
20260904201037 20 205 0.0 1.6 0.00 0.00 0.00 57 1011.6
20260904200830 20 205 0.0 1.6 0.00 0.00 0.00 57 1011.6
20260904200617 20 206 1.6 0.0 0.00 0.00 0.00 56 1011.5
20260904200408 20 206 1.6 11.3 0.00 0.00 0.00 57 1011.6
20260904200158 20 205 1.6 11.3 0.00 0.00 0.00 57 1011.6
20260904195954 20 207 1.6 11.3 0.00 0.00 0.00 57 1011.6
20260904195752 20 234 1.6 6.4 0.00 0.00 0.00 58 1011.6
20260904195549 20 225 0.0 6.4 0.00 0.00 0.00 57 1011.5
20260904195347 20 225 0.0 6.4 0.00 0.00 0.00 57 1011.5
20260904195139 20 225 0.0 6.4 0.00 0.00 0.00 58 1011.6
20260904194932 20 228 0.0 6.4 0.00 0.00 0.00 58 1011.6
20260904194723 20 228 0.0 3.2 0.00 0.00 0.00 58 1011.5
20260904194516 20 228 0.0 4.8 0.00 0.00 0.00 58 1011.5
20260904194125 20 228 0.0 3.2 0.00 0.00 0.00 58 1011.6
20260904193921 20 228 0.0 3.2 0.00 0.00 0.00 58 1011.6
20260904193718 20 228 0.0 0.0 0.00 0.00 0.00 58 1011.6
20260904193508 20 228 0.0 4.8 0.00 0.00 0.00 57 1011.6
20260904193302 20 228 0.0 4.8 0.00 0.00 0.00 57 1011.6
20260904193054 20 238 0.0 6.4 0.00 0.00 0.00 56 1011.6
20260904192850 20 238 0.0 6.4 0.00 0.00 0.00 57 1011.6
20260904192642 20 238 1.6 6.4 0.00 0.00 0.00 57 1011.7
20260904192435 20 238 1.6 6.4 0.00 0.00 0.00 56 1011.6
20260904192231 20 176 1.6 6.4 0.00 0.00 0.00 56 1011.7
20260904192019 20 211 1.6 11.3 0.00 0.00 0.00 56 1011.7
20260904191817 20 211 0.0 11.3 0.00 0.00 0.00 56 1011.7
20260904191608 20 225 0.0 11.3 0.00 0.00 0.00 55 1011.6
20260904191359 20 225 0.0 11.3 0.00 0.00 0.00 55 1011.7
20260904191153 21 225 0.0 8.0 0.00 0.00 0.00 55 1011.6
20260904190944 21 225 0.0 8.0 0.00 0.00 0.00 55 1011.7
20260904190732 21 225 0.0 8.0 0.00 0.00 0.00 54 1011.6
20260904190521 21 225 0.0 8.0 0.00 0.00 0.00 54 1011.7
20260904190313 21 225 0.0 8.0 0.00 0.00 0.00 53 1011.7
20260904190109 21 212 0.0 4.8 0.00 0.00 0.00 54 1011.7
20260904185901 21 192 0.0 0.0 0.00 0.00 0.00 53 1011.7
20260904185659 21 192 0.0 3.2 0.00 0.00 0.00 53 1011.7
20260904185456 21 194 0.0 3.2 0.00 0.00 0.00 54 1011.7
20260904185253 21 216 1.6 1.6 0.00 0.00 0.00 54 1011.8
20260904185051 21 216 1.6 11.3 0.00 0.00 0.00 53 1011.7
20260904184845 21 216 3.2 11.3 0.00 0.00 0.00 53 1011.8
20260904184640 21 215 3.2 11.3 0.00 0.00 0.00 52 1011.8
20260904184432 21 215 3.2 11.3 0.00 0.00 0.00 51 1011.7
20260904184228 21 215 1.6 9.7 0.00 0.00 0.00 51 1011.7
20260904184019 21 208 1.6 9.7 0.00 0.00 0.00 51 1011.7
20260904183817 21 224 1.6 9.7 0.00 0.00 0.00 51 1011.8
20260904183614 21 209 1.6 9.7 0.00 0.00 0.00 51 1011.8
20260904183221 21 213 1.6 14.5 0.00 0.00 0.00 52 1011.8
20260904183014 21 213 1.6 14.5 0.00 0.00 0.00 52 1011.7
20260904182808 20 213 1.6 14.5 0.00 0.00 0.00 52 1011.7
20260904182557 20 213 3.2 14.5 0.00 0.00 0.00 53 1011.7
20260904182206 20 222 3.2 14.5 0.00 0.00 0.00 54 1011.5
20260904181956 20 223 3.2 14.5 0.00 0.00 0.00 54 1011.6
20260904181751 20 241 1.6 14.5 0.00 0.00 0.00 54 1011.6
20260904181359 20 214 1.6 12.9 0.00 0.00 0.00 55 1011.6
20260904181147 20 209 1.6 12.9 0.00 0.00 0.00 55 1011.5
20260904180944 20 217 1.6 12.9 0.00 0.00 0.00 55 1011.6
20260904180556 20 217 3.2 12.9 0.00 0.00 0.00 55 1011.4
20260904180351 19 219 3.2 12.9 0.00 0.00 0.00 55 1011.5
20260904180139 19 210 1.6 9.7 0.00 0.00 0.00 56 1011.5
20260904175932 19 215 1.6 9.7 0.00 0.00 0.00 56 1011.5
20260904175728 19 215 1.6 9.7 0.00 0.00 0.00 56 1011.6
20260904175522 19 215 1.6 9.7 0.00 0.00 0.00 57 1011.5
20260904175125 19 214 1.6 11.3 0.00 0.00 0.00 56 1011.5
20260904174915 19 214 3.2 11.3 0.00 0.00 0.00 56 1011.6
20260904174706 18 246 1.6 11.3 0.00 0.00 0.00 57 1011.5
20260904174454 18 249 1.6 11.3 0.00 0.00 0.00 57 1011.5
20260904174248 18 209 1.6 11.3 0.00 0.00 0.00 57 1011.5
20260904174039 18 209 3.2 11.3 0.00 0.00 0.00 57 1011.5
20260904173826 18 209 3.2 11.3 0.00 0.00 0.00 57 1011.4
20260904173623 18 208 3.2 11.3 0.00 0.00 0.00 57 1011.4
20260904173417 18 208 3.2 11.3 0.00 0.00 0.00 58 1011.3
20260904173209 18 219 3.2 11.3 0.00 0.00 0.00 58 1011.3
20260904173003 18 215 3.2 11.3 0.00 0.00 0.00 58 1011.4
20260904172751 18 213 1.6 11.3 0.00 0.00 0.00 58 1011.3
20260904172356 18 236 1.6 8.0 0.00 0.00 0.00 59 1011.3
20260904172150 18 234 1.6 8.0 0.00 0.00 0.00 59 1011.3
20260904171943 18 223 1.6 8.0 0.00 0.00 0.00 59 1011.3
20260904171741 17 215 1.6 8.0 0.00 0.00 0.00 59 1011.2
20260904171537 17 215 1.6 8.0 0.00 0.00 0.00 59 1011.2
20260904171331 17 215 1.6 8.0 0.00 0.00 0.00 60 1011.2
20260904171129 17 221 1.6 6.4 0.00 0.00 0.00 60 1011.2
20260904170921 17 219 1.6 6.4 0.00 0.00 0.00 61 1011.2
20260904170534 17 207 0.0 6.4 0.00 0.00 0.00 61 1011.2
20260904170327 17 242 0.0 4.8 0.00 0.00 0.00 61 1011.1
20260904170121 17 296 0.0 4.8 0.00 0.00 0.00 61 1011.2
20260904165917 17 303 0.0 4.8 0.00 0.00 0.00 61 1011.1
20260904165712 17 219 0.0 4.8 0.00 0.00 0.00 62 1011.1
20260904165319 17 216 0.0 1.6 0.00 0.00 0.00 63 1011.2
20260904165114 16 216 0.0 1.6 0.00 0.00 0.00 63 1011.1
20260904164906 16 216 0.0 6.4 0.00 0.00 0.00 63 1011.1
20260904164655 16 216 0.0 6.4 0.00 0.00 0.00 63 1011.1
20260904164449 16 216 0.0 6.4 0.00 0.00 0.00 64 1011.1
20260904164244 16 216 0.0 6.4 0.00 0.00 0.00 64 1011.1
20260904163857 16 215 0.0 6.4 0.00 0.00 0.00 65 1011.1
20260904163644 16 215 0.0 6.4 0.00 0.00 0.00 65 1011.1
20260904163432 16 215 0.0 0.0 0.00 0.00 0.00 65 1011.1
20260904163230 16 215 0.0 4.8 0.00 0.00 0.00 65 1011.1
20260904163020 15 215 0.0 9.7 0.00 0.00 0.00 65 1011.1
20260904162816 15 215 0.0 9.7 0.00 0.00 0.00 66 1011.2
20260904162614 15 215 0.0 9.7 0.00 0.00 0.00 66 1011.1
20260904162402 15 215 0.0 9.7 0.00 0.00 0.00 66 1011.2
20260904162006 15 215 0.0 3.2 0.00 0.00 0.00 66 1011.1
20260904161754 15 215 0.0 3.2 0.00 0.00 0.00 67 1011.1
20260904161551 15 215 0.0 3.2 0.00 0.00 0.00 67 1011.1
20260904161344 15 215 0.0 3.2 0.00 0.00 0.00 67 1011.2
20260904161137 15 215 0.0 3.2 0.00 0.00 0.00 67 1011.2
20260904160932 15 215 0.0 9.7 0.00 0.00 0.00 67 1011.2
20260904160727 15 215 0.0 9.7 0.00 0.00 0.00 67 1011.3
20260904160522 15 215 0.0 6.4 0.00 0.00 0.00 68 1011.2
20260904160125 14 355 0.0 3.2 0.00 0.00 0.00 68 1011.2
20260904155920 14 321 0.0 3.2 0.00 0.00 0.00 68 1011.3
20260904155713 14 296 0.0 3.2 0.00 0.00 0.00 68 1011.3
20260904155512 14 302 0.0 0.0 0.00 0.00 0.00 68 1011.3
20260904155306 14 302 0.0 0.0 0.00 0.00 0.00 68 1011.3
20260904155051 14 302 0.0 0.0 0.00 0.00 0.00 69 1011.3
20260904154845 14 302 0.0 1.6 0.00 0.00 0.00 68 1011.2
20260904154642 14 302 0.0 3.2 0.00 0.00 0.00 69 1011.2
20260904154430 14 302 0.0 3.2 0.00 0.00 0.00 69 1011.3
20260904154228 14 304 0.0 0.0 0.00 0.00 0.00 70 1011.2
20260904154021 14 304 0.0 0.0 0.00 0.00 0.00 70 1011.2
20260904153814 13 304 0.0 1.6 0.00 0.00 0.00 70 1011.2
20260904153610 13 305 0.0 0.0 0.00 0.00 0.00 70 1011.2
20260904153402 13 305 0.0 0.0 0.00 0.00 0.00 70 1011.3
20260904153152 13 305 0.0 0.0 0.00 0.00 0.00 70 1011.2
20260904152804 13 305 0.0 0.0 0.00 0.00 0.00 70 1011.2
20260904152559 13 305 0.0 0.0 0.00 0.00 0.00 70 1011.2
20260904152351 13 305 0.0 3.2 0.00 0.00 0.00 71 1011.3
20260904152138 13 305 0.0 1.6 0.00 0.00 0.00 71 1011.3
20260904151742 13 305 0.0 0.0 0.00 0.00 0.00 71 1011.3
20260904151353 13 305 0.0 0.0 0.00 0.00 0.00 72 1011.3
20260904150957 13 305 0.0 0.0 0.00 0.00 0.00 72 1011.3
20260904150743 13 305 0.0 0.0 0.00 0.00 0.00 72 1011.3
20260904150541 13 305 0.0 0.0 0.00 0.00 0.00 72 1011.3
20260904150326 13 305 0.0 0.0 0.00 0.00 0.00 72 1011.3
20260904150112 13 305 0.0 0.0 0.00 0.00 0.00 72 1011.3
20260904145901 13 305 0.0 0.0 0.00 0.00 0.00 72 1011.3
20260904145654 13 305 0.0 0.0 0.00 0.00 0.00 72 1011.3
20260904145447 13 305 0.0 0.0 0.00 0.00 0.00 72 1011.3
20260904145241 13 305 0.0 0.0 0.00 0.00 0.00 72 1011.3
20260904145035 13 305 0.0 0.0 0.00 0.00 0.00 72 1011.4
20260904144824 12 305 0.0 0.0 0.00 0.00 0.00 72 1011.2
20260904144611 12 305 0.0 0.0 0.00 0.00 0.00 72 1011.3
20260904144404 12 305 0.0 0.0 0.00 0.00 0.00 71 1011.3
20260904144016 12 305 0.0 0.0 0.00 0.00 0.00 71 1011.2
20260904143802 12 305 0.0 0.0 0.00 0.00 0.00 71 1011.2
20260904143550 12 305 0.0 0.0 0.00 0.00 0.00 71 1011.1
20260904143344 12 305 0.0 0.0 0.00 0.00 0.00 71 1011.2
20260904142951 12 305 0.0 0.0 0.00 0.00 0.00 71 1011.2
20260904142744 12 305 0.0 0.0 0.00 0.00 0.00 71 1011.1
20260904142357 12 305 0.0 0.0 0.00 0.00 0.00 70 1011.1
20260904141818 12 305 0.0 0.0 0.00 0.00 0.00 70 1011.2
20260904141609 12 305 0.0 0.0 0.00 0.00 0.00 70 1011.2
20260904141355 12 305 0.0 0.0 0.00 0.00 0.00 70 1011.2
20260904141150 12 305 0.0 0.0 0.00 0.00 0.00 70 1011.2
20260904140938 12 305 0.0 0.0 0.00 0.00 0.00 70 1011.1
20260904140729 12 305 0.0 0.0 0.00 0.00 0.00 70 1011.1
20260904140334 12 305 0.0 0.0 0.00 0.00 0.00 70 1011.1
20260904140122 12 305 0.0 0.0 0.00 0.00 0.00 70 1011.0
20260904135913 12 305 0.0 0.0 0.00 0.00 0.00 70 1011.0
20260904135707 12 305 0.0 0.0 0.00 0.00 0.00 70 1011.0
20260904135504 12 305 0.0 0.0 0.00 0.00 0.00 70 1011.0
20260904135256 12 305 0.0 0.0 0.00 0.00 0.00 70 1011.0
20260904135049 12 305 0.0 0.0 0.00 0.00 0.00 70 1011.0
20260904134839 12 305 0.0 0.0 0.00 0.00 0.00 70 1011.0
20260904134633 12 305 0.0 0.0 0.00 0.00 0.00 70 1010.9
20260904134429 12 305 0.0 0.0 0.00 0.00 0.00 70 1010.9
20260904134220 12 305 0.0 0.0 0.00 0.00 0.00 70 1010.9
20260904134016 12 305 0.0 0.0 0.00 0.00 0.00 70 1010.8
20260904133805 12 305 0.0 0.0 0.00 0.00 0.00 70 1010.8
20260904133559 12 305 0.0 0.0 0.00 0.00 0.00 70 1010.7
20260904133356 12 305 0.0 0.0 0.00 0.00 0.00 70 1010.7
20260904133149 12 305 0.0 0.0 0.00 0.00 0.00 70 1010.7
20260904132947 12 305 0.0 0.0 0.00 0.00 0.00 70 1010.7
20260904132738 12 305 0.0 0.0 0.00 0.00 0.00 70 1010.7
20260904132525 12 305 0.0 0.0 0.00 0.00 0.00 70 1010.7
20260904132314 12 305 0.0 0.0 0.00 0.00 0.00 70 1010.7
20260904131547 12 305 0.0 0.0 0.00 0.00 0.00 70 1010.7
20260904131335 12 305 0.0 0.0 0.00 0.00 0.00 70 1010.6
20260904131127 12 305 0.0 0.0 0.00 0.00 0.00 70 1010.7
20260904130923 12 305 0.0 0.0 0.00 0.00 0.00 70 1010.6
20260904130710 12 305 0.0 0.0 0.00 0.00 0.00 70 1010.6
20260904130505 12 305 0.0 0.0 0.00 0.00 0.00 70 1010.5
20260904130303 12 305 0.0 0.0 0.00 0.00 0.00 70 1010.6
20260904125914 12 305 0.0 0.0 0.00 0.00 0.00 70 1010.6
20260904125710 12 305 0.0 0.0 0.00 0.00 0.00 70 1010.5
20260904125508 12 305 0.0 0.0 0.00 0.00 0.00 70 1010.5
20260904125305 12 305 0.0 0.0 0.00 0.00 0.00 70 1010.5
20260904125055 12 305 0.0 0.0 0.00 0.00 0.00 70 1010.5
20260904124845 12 305 0.0 0.0 0.00 0.00 0.00 70 1010.4
20260904124636 12 305 0.0 0.0 0.00 0.00 0.00 70 1010.5
20260904124434 12 305 0.0 0.0 0.00 0.00 0.00 70 1010.4
20260904124232 12 305 0.0 0.0 0.00 0.00 0.00 70 1010.5
20260904124021 12 305 0.0 0.0 0.00 0.00 0.00 70 1010.4
20260904123817 12 305 0.0 0.0 0.00 0.00 0.00 70 1010.4
20260904123605 12 305 0.0 0.0 0.00 0.00 0.00 70 1010.4
20260904123400 12 305 0.0 0.0 0.00 0.00 0.00 70 1010.4
20260904123151 12 305 0.0 0.0 0.00 0.00 0.00 70 1010.4
20260904122944 12 305 0.0 0.0 0.00 0.00 0.00 70 1010.5
20260904122733 12 305 0.0 0.0 0.00 0.00 0.00 70 1010.4
20260904122528 12 305 0.0 0.0 0.00 0.00 0.00 70 1010.4
20260904122324 12 305 0.0 0.0 0.00 0.00 0.00 70 1010.4
20260904122122 12 305 0.0 0.0 0.00 0.00 0.00 70 1010.3
20260904121909 12 305 0.0 0.0 0.00 0.00 0.00 70 1010.4
20260904121703 12 305 0.0 0.0 0.00 0.00 0.00 70 1010.4
20260904121459 12 305 0.0 0.0 0.00 0.00 0.00 70 1010.4
20260904121251 12 305 0.0 0.0 0.00 0.00 0.00 70 1010.4
20260904121038 12 305 0.0 0.0 0.00 0.00 0.00 70 1010.4
20260904120647 12 305 0.0 0.0 0.00 0.00 0.00 70 1010.4
20260904120437 12 305 0.0 0.0 0.00 0.00 0.00 70 1010.4
20260904120226 12 305 0.0 0.0 0.00 0.00 0.00 70 1010.4
20260904115835 12 305 0.0 0.0 0.00 0.00 0.00 70 1010.4
20260904115632 12 305 0.0 0.0 0.00 0.00 0.00 70 1010.4
20260904115427 12 305 0.0 0.0 0.00 0.00 0.00 70 1010.5
20260904115221 12 305 0.0 0.0 0.00 0.00 0.00 70 1010.5
20260904115008 12 305 0.0 0.0 0.00 0.00 0.00 70 1010.5
20260904114803 12 305 0.0 0.0 0.00 0.00 0.00 70 1010.6
20260904114554 12 305 0.0 0.0 0.00 0.00 0.00 70 1010.6
20260904114344 12 305 0.0 0.0 0.00 0.00 0.00 70 1010.6
20260904114141 12 305 0.0 0.0 0.00 0.00 0.00 70 1010.6
20260904113937 12 305 0.0 0.0 0.00 0.00 0.00 70 1010.5
20260904113727 12 305 0.0 0.0 0.00 0.00 0.00 70 1010.5
20260904113330 12 305 0.0 0.0 0.00 0.00 0.00 70 1010.5
20260904113120 12 305 0.0 0.0 0.00 0.00 0.00 70 1010.5
20260904112732 12 305 0.0 0.0 0.00 0.00 0.00 70 1010.5
20260904112522 12 305 0.0 0.0 0.00 0.00 0.00 70 1010.4
20260904112320 12 305 0.0 0.0 0.00 0.00 0.00 70 1010.4
20260904112117 12 305 0.0 0.0 0.00 0.00 0.00 70 1010.4
20260904111915 12 305 0.0 0.0 0.00 0.00 0.00 70 1010.4
20260904111704 12 305 0.0 0.0 0.00 0.00 0.00 70 1010.5
20260904111453 11 305 0.0 0.0 0.00 0.00 0.00 70 1010.5
20260904111241 11 305 0.0 0.0 0.00 0.00 0.00 70 1010.5
20260904111035 11 305 0.0 0.0 0.00 0.00 0.00 70 1010.5
20260904110832 11 305 0.0 0.0 0.00 0.00 0.00 70 1010.5
20260904110442 11 305 0.0 0.0 0.00 0.00 0.00 70 1010.5
20260904110052 11 305 0.0 0.0 0.00 0.00 0.00 70 1010.4
20260904105700 11 305 0.0 0.0 0.00 0.00 0.00 70 1010.5
20260904105449 11 305 0.0 0.0 0.00 0.00 0.00 70 1010.5
20260904105244 11 305 0.0 0.0 0.00 0.00 0.00 70 1010.5
20260904105032 11 305 0.0 0.0 0.00 0.00 0.00 70 1010.5
20260904104821 11 305 0.0 0.0 0.00 0.00 0.00 70 1010.4
20260904104616 11 305 0.0 0.0 0.00 0.00 0.00 69 1010.4
20260904104414 11 305 0.0 0.0 0.00 0.00 0.00 69 1010.4
20260904104202 11 305 0.0 0.0 0.00 0.00 0.00 69 1010.4
20260904103811 11 305 0.0 0.0 0.00 0.00 0.00 69 1010.3
20260904103609 11 305 0.0 0.0 0.00 0.00 0.00 69 1010.3
20260904103400 11 305 0.0 0.0 0.00 0.00 0.00 69 1010.3
20260904103149 11 305 0.0 0.0 0.00 0.00 0.00 69 1010.3
20260904102937 11 305 0.0 0.0 0.00 0.00 0.00 69 1010.4
20260904102736 11 305 0.0 0.0 0.00 0.00 0.00 69 1010.3
20260904102534 11 305 0.0 0.0 0.00 0.00 0.00 69 1010.3
20260904102328 11 305 0.0 0.0 0.00 0.00 0.00 69 1010.3
20260904102126 11 305 0.0 0.0 0.00 0.00 0.00 69 1010.3
20260904101728 11 305 0.0 0.0 0.00 0.00 0.00 69 1010.3
20260904101336 11 305 0.0 0.0 0.00 0.00 0.00 69 1010.4
20260904101133 11 305 0.0 0.0 0.00 0.00 0.00 69 1010.3
20260904100925 11 305 0.0 0.0 0.00 0.00 0.00 69 1010.3
20260904100721 11 305 0.0 0.0 0.00 0.00 0.00 69 1010.3
20260904100143 11 305 0.0 0.0 0.00 0.00 0.00 69 1010.3
20260904095751 11 305 0.0 0.0 0.00 0.00 0.00 69 1010.3
20260904095537 11 305 0.0 0.0 0.00 0.00 0.00 68 1010.3
20260904095331 11 305 0.0 0.0 0.00 0.00 0.00 68 1010.4
20260904095122 11 305 0.0 0.0 0.00 0.00 0.00 68 1010.4
20260904094916 11 305 0.0 0.0 0.00 0.00 0.00 68 1010.4
20260904094709 11 305 0.0 0.0 0.00 0.00 0.00 68 1010.4
20260904094500 11 305 0.0 0.0 0.00 0.00 0.00 68 1010.4
20260904094251 11 305 0.0 0.0 0.00 0.00 0.00 68 1010.4
20260904094044 11 305 0.0 0.0 0.00 0.00 0.00 68 1010.4
20260904093833 11 305 0.0 0.0 0.00 0.00 0.00 68 1010.4
20260904093630 11 305 0.0 0.0 0.00 0.00 0.00 68 1010.4
20260904093238 11 305 0.0 0.0 0.00 0.00 0.00 68 1010.4
20260904092845 11 305 0.0 0.0 0.00 0.00 0.00 68 1010.4
20260904092636 11 305 0.0 0.0 0.00 0.00 0.00 67 1010.4
20260904092425 11 305 0.0 0.0 0.00 0.00 0.00 67 1010.4
20260904092218 11 305 0.0 0.0 0.00 0.00 0.00 67 1010.4
20260904092014 11 305 0.0 0.0 0.00 0.00 0.00 67 1010.4
20260904091801 11 305 0.0 0.0 0.00 0.00 0.00 67 1010.4
20260904091414 11 305 0.0 0.0 0.00 0.00 0.00 67 1010.4
20260904091210 11 305 0.0 0.0 0.00 0.00 0.00 67 1010.4
20260904091000 11 305 0.0 0.0 0.00 0.00 0.00 67 1010.4
20260904090751 11 305 0.0 0.0 0.00 0.00 0.00 67 1010.4
20260904090548 11 305 0.0 0.0 0.00 0.00 0.00 66 1010.4
20260904090343 11 305 0.0 0.0 0.00 0.00 0.00 67 1010.5
20260904090140 11 305 0.0 0.0 0.00 0.00 0.00 66 1010.5
20260904085937 11 305 0.0 0.0 0.00 0.00 0.00 67 1010.6
20260904085726 11 305 0.0 0.0 0.00 0.00 0.00 66 1010.5
20260904085516 11 305 0.0 0.0 0.00 0.00 0.00 66 1010.5
20260904085313 11 305 0.0 0.0 0.00 0.00 0.00 66 1010.5
20260904085108 11 305 0.0 0.0 0.00 0.00 0.00 66 1010.6
20260904084902 11 305 0.0 0.0 0.00 0.00 0.00 66 1010.6
20260904084650 11 305 0.0 0.0 0.00 0.00 0.00 66 1010.6
20260904084303 11 305 0.0 0.0 0.00 0.00 0.00 66 1010.6
20260904084059 11 305 0.0 0.0 0.00 0.00 0.00 66 1010.6
20260904083852 11 305 0.0 0.0 0.00 0.00 0.00 66 1010.6
20260904083646 11 305 0.0 0.0 0.00 0.00 0.00 66 1010.6
20260904083433 11 305 0.0 0.0 0.00 0.00 0.00 66 1010.6
20260904083229 11 305 0.0 0.0 0.00 0.00 0.00 66 1010.6
20260904083024 11 305 0.0 0.0 0.00 0.00 0.00 66 1010.6
20260904082814 11 305 0.0 0.0 0.00 0.00 0.00 66 1010.6
20260904082426 11 305 0.0 0.0 0.00 0.00 0.00 66 1010.6
20260904082218 11 305 0.0 0.0 0.00 0.00 0.00 66 1010.6
20260904082006 12 305 0.0 0.0 0.00 0.00 0.00 66 1010.6
20260904081753 12 305 0.0 0.0 0.00 0.00 0.00 66 1010.6
20260904081550 12 305 0.0 0.0 0.00 0.00 0.00 66 1010.6
20260904081338 12 305 0.0 0.0 0.00 0.00 0.00 66 1010.6
20260904081134 12 305 0.0 0.0 0.00 0.00 0.00 66 1010.5
20260904080928 12 305 0.0 0.0 0.00 0.00 0.00 66 1010.6
20260904080720 12 305 0.0 0.0 0.00 0.00 0.00 66 1010.6
20260904080508 12 305 0.0 0.0 0.00 0.00 0.00 66 1010.6
20260904080257 12 305 0.0 0.0 0.00 0.00 0.00 66 1010.6
20260904080053 12 305 0.0 0.0 0.00 0.00 0.00 66 1010.6
20260904075841 12 305 0.0 0.0 0.00 0.00 0.00 66 1010.6
20260904075629 12 305 0.0 0.0 0.00 0.00 0.00 66 1010.6
20260904075418 12 305 0.0 0.0 0.00 0.00 0.00 66 1010.6
20260904075213 12 305 0.0 0.0 0.00 0.00 0.00 66 1010.6
20260904074450 12 305 0.0 0.0 0.00 0.00 0.00 66 1010.6
20260904074240 12 305 0.0 0.0 0.00 0.00 0.00 66 1010.6
20260904074037 12 305 0.0 0.0 0.00 0.00 0.00 66 1010.6
20260904073827 12 305 0.0 0.0 0.00 0.00 0.00 66 1010.7
20260904073615 12 305 0.0 0.0 0.00 0.00 0.00 66 1010.7
20260904073414 12 305 0.0 0.0 0.00 0.00 0.00 66 1010.6
20260904073208 12 305 0.0 0.0 0.00 0.00 0.00 66 1010.6
20260904072957 12 305 0.0 0.0 0.00 0.00 0.00 66 1010.6
20260904072750 12 305 0.0 0.0 0.00 0.00 0.00 66 1010.6
20260904072542 12 305 0.0 0.0 0.00 0.00 0.00 66 1010.6
20260904072333 12 305 0.0 0.0 0.00 0.00 0.00 66 1010.6
20260904071944 12 305 0.0 0.0 0.00 0.00 0.00 66 1010.6
20260904071742 12 305 0.0 0.0 0.00 0.00 0.00 65 1010.7
20260904071535 12 305 0.0 0.0 0.00 0.00 0.00 66 1010.6
20260904071323 12 305 0.0 0.0 0.00 0.00 0.00 66 1010.6
20260904071110 12 305 0.0 0.0 0.00 0.00 0.00 65 1010.6
20260904070903 12 305 0.0 0.0 0.00 0.00 0.00 65 1010.6
20260904070654 12 305 0.0 0.0 0.00 0.00 0.00 65 1010.6
20260904070256 12 305 0.0 0.0 0.00 0.00 0.00 65 1010.5
20260904070049 12 305 0.0 0.0 0.00 0.00 0.00 65 1010.6
20260904065842 12 305 0.0 0.0 0.00 0.00 0.00 65 1010.6
20260904065443 12 305 0.0 0.0 0.00 0.00 0.00 65 1010.6
20260904065236 12 305 0.0 0.0 0.00 0.00 0.00 64 1010.5
20260904065031 12 305 0.0 0.0 0.00 0.00 0.00 64 1010.6
20260904064821 12 305 0.0 0.0 0.00 0.00 0.00 64 1010.6
20260904064426 12 305 0.0 0.0 0.00 0.00 0.00 64 1010.6
20260904064211 12 305 0.0 0.0 0.00 0.00 0.00 64 1010.6
20260904064000 12 305 0.0 0.0 0.00 0.00 0.00 64 1010.7
20260904063747 12 305 0.0 0.0 0.00 0.00 0.00 64 1010.6
20260904063532 12 305 0.0 0.0 0.00 0.00 0.00 64 1010.6
20260904063324 12 305 0.0 0.0 0.00 0.00 0.00 64 1010.6
20260904063120 12 305 0.0 0.0 0.00 0.00 0.00 64 1010.6
20260904062909 12 305 0.0 0.0 0.00 0.00 0.00 64 1010.6
20260904062701 12 305 0.0 0.0 0.00 0.00 0.00 64 1010.6
20260904062309 13 305 0.0 0.0 0.00 0.00 0.00 64 1010.6
20260904062107 13 305 0.0 0.0 0.00 0.00 0.00 63 1010.6
20260904061854 13 305 0.0 0.0 0.00 0.00 0.00 63 1010.6
20260904061649 13 305 0.0 0.0 0.00 0.00 0.00 63 1010.6
20260904061300 13 305 0.0 0.0 0.00 0.00 0.00 63 1010.5
20260904060717 13 305 0.0 0.0 0.00 0.00 0.00 63 1010.5
20260904060507 13 305 0.0 0.0 0.00 0.00 0.00 63 1010.4
20260904060255 13 305 0.0 0.0 0.00 0.00 0.00 63 1010.4
20260904060053 13 305 0.0 0.0 0.00 0.00 0.00 63 1010.3
20260904055841 13 305 0.0 0.0 0.00 0.00 0.00 63 1010.4
20260904055639 13 305 0.0 0.0 0.00 0.00 0.00 62 1010.4
20260904055248 13 305 0.0 0.0 0.00 0.00 0.00 62 1010.4
20260904055047 13 305 0.0 0.0 0.00 0.00 0.00 62 1010.4
20260904054843 13 305 0.0 0.0 0.00 0.00 0.00 62 1010.4
20260904054633 13 305 0.0 0.0 0.00 0.00 0.00 62 1010.4
20260904054421 13 305 0.0 0.0 0.00 0.00 0.00 62 1010.4
20260904054214 13 305 0.0 0.0 0.00 0.00 0.00 62 1010.4
20260904054009 13 305 0.0 0.0 0.00 0.00 0.00 62 1010.4
20260904053803 13 305 0.0 0.0 0.00 0.00 0.00 62 1010.4
20260904053558 13 305 0.0 0.0 0.00 0.00 0.00 62 1010.4
20260904053349 13 305 0.0 0.0 0.00 0.00 0.00 62 1010.4
20260904052958 13 305 0.0 0.0 0.00 0.00 0.00 61 1010.4
20260904052756 13 305 0.0 0.0 0.00 0.00 0.00 61 1010.5
20260904052554 13 305 0.0 0.0 0.00 0.00 0.00 61 1010.5
20260904052341 13 305 0.0 0.0 0.00 0.00 0.00 61 1010.5
20260904052134 13 305 0.0 0.0 0.00 0.00 0.00 61 1010.5
20260904051923 14 305 0.0 0.0 0.00 0.00 0.00 61 1010.6
20260904051712 14 305 0.0 0.0 0.00 0.00 0.00 61 1010.6
20260904051459 14 305 0.0 0.0 0.00 0.00 0.00 61 1010.6
20260904051249 14 305 0.0 0.0 0.00 0.00 0.00 60 1010.6
20260904051039 14 305 0.0 0.0 0.00 0.00 0.00 60 1010.7
20260904050651 14 305 0.0 0.0 0.00 0.00 0.00 60 1010.6
20260904050447 14 305 0.0 0.0 0.00 0.00 0.00 60 1010.6
20260904050245 14 305 0.0 0.0 0.00 0.00 0.00 60 1010.6
20260904050033 14 305 0.0 0.0 0.00 0.00 0.00 60 1010.7
20260904045821 14 305 0.0 0.0 0.00 0.00 0.00 60 1010.6
20260904045434 14 305 0.0 0.0 0.00 0.00 0.00 60 1010.6
20260904045224 15 305 0.0 0.0 0.00 0.00 0.00 59 1010.7
20260904045015 15 305 0.0 0.0 0.00 0.00 0.00 59 1010.7
20260904044621 15 305 0.0 0.0 0.00 0.00 0.00 59 1010.6
20260904044408 15 305 0.0 0.0 0.00 0.00 0.00 59 1010.7
20260904044202 15 305 0.0 0.0 0.00 0.00 0.00 59 1010.6
20260904043951 15 305 0.0 0.0 0.00 0.00 0.00 59 1010.7
20260904043740 15 305 0.0 0.0 0.00 0.00 0.00 58 1010.7
20260904043529 15 305 0.0 0.0 0.00 0.00 0.00 58 1010.7
20260904043318 15 305 0.0 0.0 0.00 0.00 0.00 58 1010.7
20260904043106 15 305 0.0 0.0 0.00 0.00 0.00 58 1010.7
20260904042859 15 305 0.0 0.0 0.00 0.00 0.00 58 1010.7
20260904042657 15 305 0.0 0.0 0.00 0.00 0.00 58 1010.7
20260904042453 15 305 0.0 0.0 0.00 0.00 0.00 58 1010.7
20260904042248 15 305 0.0 0.0 0.00 0.00 0.00 58 1010.7
20260904042037 15 305 0.0 0.0 0.00 0.00 0.00 57 1010.7
20260904041826 15 305 0.0 0.0 0.00 0.00 0.00 57 1010.7
20260904041619 15 305 0.0 0.0 0.00 0.00 0.00 57 1010.7
20260904041416 15 305 0.0 0.0 0.00 0.00 0.00 57 1010.7
20260904041203 15 305 0.0 0.0 0.00 0.00 0.00 57 1010.6
20260904040811 16 305 0.0 0.0 0.00 0.00 0.00 56 1010.6
20260904040600 16 305 0.0 0.0 0.00 0.00 0.00 56 1010.6
20260904040350 16 305 0.0 0.0 0.00 0.00 0.00 56 1010.6
20260904035956 16 305 0.0 0.0 0.00 0.00 0.00 56 1010.5
20260904035748 16 305 0.0 0.0 0.00 0.00 0.00 56 1010.5
20260904035544 16 305 0.0 0.0 0.00 0.00 0.00 55 1010.5
20260904035335 16 305 0.0 0.0 0.00 0.00 0.00 55 1010.5
20260904035125 16 305 0.0 0.0 0.00 0.00 0.00 55 1010.5
20260904034916 16 305 0.0 0.0 0.00 0.00 0.00 54 1010.5
20260904034709 16 305 0.0 0.0 0.00 0.00 0.00 54 1010.5
20260904034319 16 305 0.0 0.0 0.00 0.00 0.00 54 1010.5
20260904034114 16 305 0.0 0.0 0.00 0.00 0.00 54 1010.4
20260904033722 17 305 0.0 0.0 0.00 0.00 0.00 53 1010.4
20260904033510 17 305 0.0 0.0 0.00 0.00 0.00 53 1010.4
20260904033300 17 305 0.0 0.0 0.00 0.00 0.00 53 1010.3
20260904033054 17 305 0.0 0.0 0.00 0.00 0.00 53 1010.3
20260904032706 17 305 0.0 0.0 0.00 0.00 0.00 52 1010.3
20260904032505 17 305 0.0 0.0 0.00 0.00 0.00 52 1010.3
20260904032257 17 305 0.0 0.0 0.00 0.00 0.00 52 1010.2
20260904031909 17 305 0.0 0.0 0.00 0.00 0.00 52 1010.3
20260904031701 17 305 0.0 0.0 0.00 0.00 0.00 51 1010.2
20260904031457 18 305 0.0 0.0 0.00 0.00 0.00 51 1010.2
20260904031107 18 305 0.0 0.0 0.00 0.00 0.00 51 1010.2
20260904030902 18 305 0.0 0.0 0.00 0.00 0.00 51 1010.2
20260904030656 18 305 0.0 0.0 0.00 0.00 0.00 50 1010.2
20260904030452 18 305 0.0 0.0 0.00 0.00 0.00 50 1010.2
20260904030242 18 305 0.0 0.0 0.00 0.00 0.00 50 1010.1
20260904030031 18 305 0.0 0.0 0.00 0.00 0.00 50 1010.1
20260904025826 18 305 0.0 0.0 0.00 0.00 0.00 50 1010.2
20260904025432 18 305 0.0 0.0 0.00 0.00 0.00 49 1010.1
20260904025225 19 305 0.0 0.0 0.00 0.00 0.00 49 1010.1
20260904025023 19 305 0.0 0.0 0.00 0.00 0.00 49 1010.2
20260904024820 19 305 0.0 0.0 0.00 0.00 0.00 49 1010.2
20260904024619 19 305 0.0 0.0 0.00 0.00 0.00 48 1010.3
20260904024418 19 305 0.0 0.0 0.00 0.00 0.00 49 1010.2
20260904024209 19 305 0.0 0.0 0.00 0.00 0.00 48 1010.2
20260904024005 20 305 0.0 0.0 0.00 0.00 0.00 48 1010.3
20260904023803 20 305 0.0 0.0 0.00 0.00 0.00 48 1010.2
20260904023554 20 305 0.0 0.0 0.00 0.00 0.00 48 1010.2
20260904023343 20 305 0.0 0.0 0.00 0.00 0.00 48 1010.2
20260904023134 20 305 0.0 0.0 0.00 0.00 0.00 48 1010.2
20260904022746 20 305 0.0 0.0 0.00 0.00 0.00 48 1010.2
20260904022534 20 305 0.0 0.0 0.00 0.00 0.00 48 1010.2
20260904022329 20 305 0.0 0.0 0.00 0.00 0.00 48 1010.2
20260904022120 20 305 0.0 0.0 0.00 0.00 0.00 47 1010.1
20260904021907 20 305 0.0 0.0 0.00 0.00 0.00 47 1010.2
20260904021659 20 305 0.0 0.0 0.00 0.00 0.00 47 1010.2
20260904021452 20 305 0.0 0.0 0.00 0.00 0.00 47 1010.1
20260904020911 21 305 0.0 0.0 0.00 0.00 0.00 47 1010.2
20260904020704 21 305 0.0 0.0 0.00 0.00 0.00 47 1010.1
20260904020452 21 305 0.0 0.0 0.00 0.00 0.00 47 1010.1
20260904020244 21 305 0.0 0.0 0.00 0.00 0.00 47 1010.2
20260904020031 21 305 0.0 0.0 0.00 0.00 0.00 47 1010.2
20260904015822 21 305 0.0 0.0 0.00 0.00 0.00 46 1010.1
20260904015618 21 305 0.0 0.0 0.00 0.00 0.00 46 1010.3
20260904015414 21 305 0.0 0.0 0.00 0.00 0.00 45 1010.3
20260904015207 21 305 0.0 0.0 0.00 0.00 0.00 45 1010.3
20260904015001 21 305 0.0 0.0 0.00 0.00 0.00 45 1010.3
20260904014607 21 305 0.0 1.6 0.00 0.00 0.00 45 1010.3
20260904014400 21 305 0.0 0.0 0.00 0.00 0.00 45 1010.3
20260904014147 21 305 0.0 0.0 0.00 0.00 0.00 45 1010.3
20260904013944 21 305 0.0 0.0 0.00 0.00 0.00 44 1010.3
20260904013739 21 305 0.0 1.6 0.00 0.00 0.00 45 1010.3
20260904013530 21 305 0.0 0.0 0.00 0.00 0.00 44 1010.3
20260904013327 21 305 0.0 0.0 0.00 0.00 0.00 43 1010.3
20260904013116 22 304 0.0 4.8 0.00 0.00 0.00 44 1010.3
20260904012906 22 303 0.0 1.6 0.00 0.00 0.00 43 1010.3
20260904012656 22 303 0.0 3.2 0.00 0.00 0.00 43 1010.3
20260904012453 22 304 0.0 3.2 0.00 0.00 0.00 43 1010.2
20260904012241 22 241 0.0 3.2 0.00 0.00 0.00 44 1010.3
20260904012035 22 240 0.0 0.0 0.00 0.00 0.00 44 1010.4
20260904011826 22 240 0.0 1.6 0.00 0.00 0.00 43 1010.4
20260904011617 22 256 0.0 0.0 0.00 0.00 0.00 43 1010.3
20260904011414 22 256 0.0 8.0 0.00 0.00 0.00 43 1010.3
20260904011207 22 238 0.0 4.8 0.00 0.00 0.00 43 1010.4
20260904010811 22 237 0.0 1.6 0.00 0.00 0.00 43 1010.4
20260904010601 22 237 0.0 3.2 0.00 0.00 0.00 42 1010.2
20260904010356 22 153 0.0 0.0 0.00 0.00 0.00 43 1010.2
20260904010143 22 153 0.0 3.2 0.00 0.00 0.00 42 1010.2
20260904005937 22 280 0.0 1.6 0.00 0.00 0.00 42 1010.2
20260904005544 22 280 0.0 4.8 0.00 0.00 0.00 41 1010.2
20260904005339 22 277 0.0 4.8 0.00 0.00 0.00 42 1010.3
20260904004949 23 273 0.0 4.8 0.00 0.00 0.00 41 1010.3
20260904004746 23 279 0.0 4.8 0.00 0.00 0.00 41 1010.2
20260904004541 23 215 0.0 3.2 0.00 0.00 0.00 41 1010.2
20260904004333 23 215 0.0 3.2 0.00 0.00 0.00 42 1010.2
20260904004126 23 215 0.0 8.0 0.00 0.00 0.00 41 1010.2
20260904003914 23 213 1.6 8.0 0.00 0.00 0.00 41 1010.2
20260904003707 23 198 1.6 8.0 0.00 0.00 0.00 41 1010.2
20260904003455 23 147 1.6 8.0 0.00 0.00 0.00 41 1010.2
20260904003252 23 216 1.6 8.0 0.00 0.00 0.00 41 1010.2
20260904003050 23 242 1.6 8.0 0.00 0.00 0.00 40 1010.3
20260904002844 23 216 1.6 8.0 0.00 0.00 0.00 41 1010.2
20260904002633 23 232 1.6 8.0 0.00 0.00 0.00 41 1010.2
20260904002422 23 340 1.6 9.7 0.00 0.00 0.00 40 1010.2
20260904002213 23 344 1.6 9.7 0.00 0.00 0.00 41 1010.2
20260904002007 23 268 0.0 9.7 0.00 0.00 0.00 41 1010.3
20260904001801 23 233 1.6 9.7 0.00 0.00 0.00 40 1010.3
20260904001559 23 233 0.0 9.7 0.00 0.00 0.00 40 1010.2
20260904001358 23 155 1.6 9.7 0.00 0.00 0.00 41 1010.2
20260904001002 23 306 1.6 9.7 0.00 0.00 0.00 41 1010.3
20260904000757 23 219 0.0 9.7 0.00 0.00 0.00 39 1010.3
20260904000545 23 281 0.0 9.7 0.00 0.00 0.00 39 1010.4
20260904000333 23 306 0.0 6.4 0.00 0.00 0.00 39 1010.3
20260904000122 24 214 0.0 0.0 0.00 0.00 0.00 40 1010.4
20260903235918 24 214 0.0 11.3 0.00 0.00 0.00 39 1010.4
20260903235711 24 214 0.0 11.3 0.00 0.00 0.00 39 1010.5
20260903235507 24 215 0.0 11.3 0.00 0.00 0.00 39 1010.5
20260903235300 24 223 0.0 11.3 0.00 0.00 0.00 38 1010.4
20260903235048 24 278 1.6 9.7 0.00 0.00 0.00 40 1010.5
20260903234846 24 278 1.6 9.7 0.00 0.00 0.00 39 1010.5
20260903234640 24 228 1.6 9.7 0.00 0.00 0.00 39 1010.5
20260903234433 23 217 0.0 9.7 0.00 0.00 0.00 39 1010.4
20260903234226 24 148 0.0 9.7 0.00 0.00 0.00 39 1010.4
20260903233837 24 211 0.0 4.8 0.00 0.00 0.00 40 1010.4
20260903233625 24 213 0.0 0.0 0.00 0.00 0.00 39 1010.4
20260903233423 24 213 0.0 11.3 0.00 0.00 0.00 40 1010.4
20260903233212 24 213 0.0 11.3 0.00 0.00 0.00 38 1010.5
20260903233010 25 329 1.6 11.3 0.00 0.00 0.00 39 1010.4
20260903232804 25 251 1.6 9.7 0.00 0.00 0.00 38 1010.5
20260903232555 25 264 1.6 9.7 0.00 0.00 0.00 38 1010.6
20260903232349 25 294 1.6 9.7 0.00 0.00 0.00 39 1010.6
20260903232146 25 225 1.6 9.7 0.00 0.00 0.00 38 1010.6
20260903231937 25 267 0.0 9.7 0.00 0.00 0.00 37 1010.5
20260903231732 25 216 0.0 9.7 0.00 0.00 0.00 38 1010.5
20260903231523 25 227 0.0 8.0 0.00 0.00 0.00 38 1010.5
20260903231313 25 227 0.0 8.0 0.00 0.00 0.00 39 1010.5
20260903231107 25 157 0.0 8.0 0.00 0.00 0.00 39 1010.6
20260903230902 25 283 0.0 8.0 0.00 0.00 0.00 38 1010.7
20260903230659 24 231 0.0 8.0 0.00 0.00 0.00 39 1010.7
20260903230450 24 284 0.0 8.0 0.00 0.00 0.00 39 1010.7
20260903230055 24 284 0.0 8.0 0.00 0.00 0.00 39 1010.7
20260903225843 24 286 1.6 8.0 0.00 0.00 0.00 38 1010.8
20260903225637 24 197 1.6 9.7 0.00 0.00 0.00 38 1010.8
20260903225430 24 210 1.6 9.7 0.00 0.00 0.00 40 1010.8
20260903225222 24 210 3.2 9.7 0.00 0.00 0.00 38 1010.9
20260903225015 25 210 1.6 9.7 0.00 0.00 0.00 38 1011.0
20260903224813 25 211 1.6 9.7 0.00 0.00 0.00 38 1010.9
20260903224604 25 161 1.6 9.7 0.00 0.00 0.00 37 1011.0
20260903224352 25 355 0.0 9.7 0.00 0.00 0.00 39 1011.0
20260903224143 25 323 0.0 9.7 0.00 0.00 0.00 39 1011.0
20260903223936 24 304 0.0 9.7 0.00 0.00 0.00 38 1011.0
20260903223726 24 284 0.0 8.0 0.00 0.00 0.00 39 1011.0
20260903223331 24 95 1.6 9.7 0.00 0.00 0.00 38 1011.1
20260903223119 25 207 1.6 9.7 0.00 0.00 0.00 38 1011.1
20260903222917 25 196 1.6 9.7 0.00 0.00 0.00 38 1011.2
20260903222709 25 219 1.6 9.7 0.00 0.00 0.00 40 1011.2
20260903222318 25 252 1.6 9.7 0.00 0.00 0.00 39 1011.2
20260903222117 25 219 1.6 9.7 0.00 0.00 0.00 38 1011.2
20260903221904 25 242 1.6 9.7 0.00 0.00 0.00 40 1011.3
20260903221656 25 244 1.6 9.7 0.00 0.00 0.00 38 1011.3
20260903221454 25 16 1.6 8.0 0.00 0.00 0.00 40 1011.4
20260903221251 24 288 1.6 9.7 0.00 0.00 0.00 40 1011.4
20260903221039 24 329 1.6 9.7 0.00 0.00 0.00 39 1011.4
20260903220647 24 261 1.6 9.7 0.00 0.00 0.00 40 1011.4
20260903220440 24 261 1.6 11.3 0.00 0.00 0.00 39 1011.6
20260903215859 24 228 1.6 11.3 0.00 0.00 0.00 39 1011.6
20260903215651 24 277 0.0 11.3 0.00 0.00 0.00 39 1011.6
20260903215439 24 211 0.0 11.3 0.00 0.00 0.00 38 1011.5
20260903215233 25 211 1.6 11.3 0.00 0.00 0.00 38 1011.7
20260903215020 25 266 1.6 11.3 0.00 0.00 0.00 39 1011.7
20260903214633 25 249 1.6 11.3 0.00 0.00 0.00 39 1011.7
20260903214422 24 213 0.0 8.0 0.00 0.00 0.00 40 1011.7
20260903214211 24 247 0.0 6.4 0.00 0.00 0.00 40 1011.6
20260903214003 24 15 0.0 6.4 0.00 0.00 0.00 40 1011.7
20260903213607 24 227 1.6 4.8 0.00 0.00 0.00 39 1011.7
20260903213401 24 227 0.0 4.8 0.00 0.00 0.00 40 1011.7
20260903213010 24 207 1.6 8.0 0.00 0.00 0.00 39 1011.7
20260903212759 24 207 1.6 4.8 0.00 0.00 0.00 40 1011.7
20260903212557 24 198 1.6 3.2 0.00 0.00 0.00 39 1011.8
20260903212354 24 198 1.6 8.0 0.00 0.00 0.00 38 1011.8